Terminal Aerodrome Forecast
Issued by NWS Blacksburg, VA

Current Version | Previous Version | Text Only | Print | Product List | Glossary Off
Versions: 1 2 3 4 5 6 7 8 9 10 11 12 13 14 15 16 17 18 19 20 21 22 23 24

000
FTUS41 KRNK 202328
TAFBLF
TAF
KBLF 202328Z 2100/2124 29011G19KT P6SM SKC
     FM210400 28010KT P6SM SCT030
     FM211500 29008G16KT P6SM SCT030
     FM212100 30007KT P6SM SKC=

USA.gov is the U.S. government's official web portal to all federal, state and local government web resources and services.